Time,TemperatureF,DewpointF,PressureIn,WindDirection,WindDirectionDegrees,WindSpeedMPH,WindSpeedGustMPH,Humidity,HourlyPrecipIn,Conditions,Clouds,dailyrainin,SoftwareType,DateUTC
2013-06-10 00:00:00,62.5,27.2,18.65,SW,217,0.0,2.0,26,0.00,,,0.01,VWS V14.01,2013-06-10 07:00:00,
2013-06-10 00:02:00,62.5,27.2,18.65,SW,217,0.0,2.0,26,0.00,,,0.00,VWS V14.01,2013-06-10 07:02:00,
2013-06-10 00:07:00,62.5,27.2,18.65,SW,217,0.0,2.0,26,0.00,,,0.00,VWS V14.01,2013-06-10 07:07:00,
2013-06-10 00:12:00,62.5,27.2,18.65,SW,217,0.0,2.0,26,0.00,,,0.00,VWS V14.01,2013-06-10 07:12:00,
2013-06-10 00:17:00,62.5,27.2,18.65,SW,217,1.0,2.0,26,0.00,,,0.00,VWS V14.01,2013-06-10 07:17:00,
2013-06-10 00:22:00,62.5,27.2,18.65,SW,217,0.0,2.0,26,0.00,,,0.00,VWS V14.01,2013-06-10 07:22:00,
2013-06-10 00:27:00,62.5,27.2,18.65,SW,217,0.0,2.0,26,0.00,,,0.00,VWS V14.01,2013-06-10 07:27:00,
2013-06-10 00:30:00,62.5,27.2,18.65,SW,217,0.0,2.0,26,0.00,,,0.00,VWS V14.01,2013-06-10 07:30:00,
2013-06-10 00:32:00,62.5,27.2,18.65,SW,217,0.0,0.0,26,0.00,,,0.00,VWS V14.01,2013-06-10 07:32:00,
2013-06-10 00:37:00,62.5,27.2,18.65,SW,217,0.0,0.0,26,0.00,,,0.00,VWS V14.01,2013-06-10 07:37:00,
2013-06-10 00:42:00,62.5,27.2,18.65,SW,217,0.0,1.0,26,0.00,,,0.00,VWS V14.01,2013-06-10 07:42:00,
2013-06-10 00:47:00,62.5,27.2,18.65,SW,217,0.0,1.0,26,0.00,,,0.00,VWS V14.01,2013-06-10 07:47:00,
2013-06-10 00:52:00,62.5,27.2,18.65,SW,217,0.0,1.0,26,0.00,,,0.00,VWS V14.01,2013-06-10 07:52:00,
2013-06-10 00:57:00,62.5,27.2,18.65,SW,217,0.0,1.0,26,0.00,,,0.00,VWS V14.01,2013-06-10 07:57:00,
2013-06-10 01:00:00,62.5,27.2,18.65,SW,217,0.0,1.0,26,0.00,,,0.00,VWS V14.01,2013-06-10 08:00:00,
2013-06-10 01:02:00,62.5,27.2,18.65,SW,217,2.0,3.0,26,0.00,,,0.00,VWS V14.01,2013-06-10 08:02:00,
2013-06-10 01:07:00,62.5,27.2,18.65,SW,217,0.0,3.0,26,0.00,,,0.00,VWS V14.01,2013-06-10 08:07:00,
2013-06-10 01:12:00,62.4,27.1,18.65,SW,217,1.0,3.0,26,0.00,,,0.00,VWS V14.01,2013-06-10 08:12:00,
2013-06-10 01:17:00,62.4,27.1,18.65,SSW,196,0.0,3.0,26,0.00,,,0.00,VWS V14.01,2013-06-10 08:17:00,
2013-06-10 01:22:00,62.3,27.0,18.65,SSW,196,0.0,3.0,26,0.00,,,0.00,VWS V14.01,2013-06-10 08:22:00,
2013-06-10 01:27:00,62.2,26.9,18.65,SSW,196,0.0,3.0,26,0.00,,,0.00,VWS V14.01,2013-06-10 08:27:00,
2013-06-10 01:30:00,62.2,26.9,18.65,SSW,196,0.0,3.0,26,0.00,,,0.00,VWS V14.01,2013-06-10 08:30:00,
2013-06-10 01:32:00,62.2,26.9,18.65,SSW,196,0.0,5.0,26,0.00,,,0.00,VWS V14.01,2013-06-10 08:32:00,
2013-06-10 01:37:00,62.0,25.8,18.65,SSW,196,0.0,5.0,25,0.00,,,0.00,VWS V14.01,2013-06-10 08:37:00,
2013-06-10 01:42:00,62.0,25.8,18.65,SSW,196,0.0,5.0,25,0.00,,,0.00,VWS V14.01,2013-06-10 08:42:00,
2013-06-10 01:47:00,62.0,25.8,18.65,SSW,196,0.0,5.0,25,0.00,,,0.00,VWS V14.01,2013-06-10 08:47:00,
2013-06-10 01:52:00,61.9,25.7,18.65,SSW,196,0.0,5.0,25,0.00,,,0.00,VWS V14.01,2013-06-10 08:52:00,
2013-06-10 01:57:00,61.9,25.7,18.65,SSW,196,0.0,5.0,25,0.00,,,0.00,VWS V14.01,2013-06-10 08:57:00,
2013-06-10 02:00:00,61.9,25.7,18.65,SSW,196,0.0,5.0,25,0.00,,,0.00,VWS V14.01,2013-06-10 09:00:00,
2013-06-10 02:02:00,61.8,25.6,18.65,SSW,196,0.0,2.0,25,0.00,,,0.00,VWS V14.01,2013-06-10 09:02:00,
2013-06-10 02:07:00,61.9,25.7,18.65,SSW,196,0.0,2.0,25,0.00,,,0.00,VWS V14.01,2013-06-10 09:07:00,
2013-06-10 02:12:00,61.9,25.7,18.65,SSW,195,1.0,2.0,25,0.00,,,0.00,VWS V14.01,2013-06-10 09:12:00,
2013-06-10 02:17:00,61.9,25.7,18.65,SSW,195,0.0,2.0,25,0.00,,,0.00,VWS V14.01,2013-06-10 09:17:00,
2013-06-10 02:22:00,62.0,25.8,18.65,South,187,0.0,2.0,25,0.00,,,0.00,VWS V14.01,2013-06-10 09:22:00,
2013-06-10 02:27:00,62.0,25.8,18.65,South,188,1.0,3.0,25,0.00,,,0.00,VWS V14.01,2013-06-10 09:27:00,
2013-06-10 02:30:00,62.0,25.8,18.65,South,188,0.0,3.0,25,0.00,,,0.00,VWS V14.01,2013-06-10 09:30:00,
2013-06-10 02:32:00,62.0,25.8,18.65,South,188,0.0,2.0,25,0.00,,,0.00,VWS V14.01,2013-06-10 09:32:00,
2013-06-10 02:37:00,62.1,25.9,18.65,South,185,0.0,2.0,25,0.00,,,0.00,VWS V14.01,2013-06-10 09:37:00,
2013-06-10 02:42:00,62.2,26.0,18.65,South,185,1.0,2.0,25,0.00,,,0.00,VWS V14.01,2013-06-10 09:42:00,
2013-06-10 02:47:00,62.2,26.0,18.65,South,185,0.0,2.0,25,0.00,,,0.00,VWS V14.01,2013-06-10 09:47:00,
2013-06-10 02:52:00,62.2,26.0,18.65,South,185,0.0,2.0,25,0.00,,,0.00,VWS V14.01,2013-06-10 09:52:00,
2013-06-10 02:57:00,62.2,26.0,18.65,South,185,0.0,2.0,25,0.00,,,0.00,VWS V14.01,2013-06-10 09:57:00,
2013-06-10 03:00:00,62.2,26.0,18.65,South,185,0.0,2.0,25,0.00,,,0.00,VWS V14.01,2013-06-10 10:00:00,
2013-06-10 03:02:00,62.2,26.0,18.65,South,185,1.0,1.0,25,0.00,,,0.00,VWS V14.01,2013-06-10 10:02:00,
2013-06-10 03:07:00,62.2,26.0,18.65,South,185,0.0,2.0,25,0.00,,,0.00,VWS V14.01,2013-06-10 10:07:00,
2013-06-10 03:12:00,62.2,26.0,21.70,South,185,0.0,2.0,25,0.00,,,0.00,VWS V14.01,2013-06-10 10:12:00,
2013-06-10 03:17:00,62.3,26.1,21.70,South,185,0.0,2.0,25,0.00,,,0.00,VWS V14.01,2013-06-10 10:17:00,
2013-06-10 03:22:00,62.3,26.1,21.70,South,185,0.0,2.0,25,0.00,,,0.00,VWS V14.01,2013-06-10 10:22:00,
2013-06-10 03:27:00,62.3,26.1,21.70,South,185,0.0,2.0,25,0.00,,,0.00,VWS V14.01,2013-06-10 10:27:00,
2013-06-10 03:30:00,62.3,26.1,21.70,South,182,1.0,2.0,25,0.00,,,0.00,VWS V14.01,2013-06-10 10:30:00,
2013-06-10 03:32:00,62.3,26.1,21.70,South,180,0.0,2.0,25,0.00,,,0.00,VWS V14.01,2013-06-10 10:32:00,
2013-06-10 03:37:00,62.3,26.1,21.70,South,180,0.0,2.0,25,0.00,,,0.00,VWS V14.01,2013-06-10 10:37:00,
2013-06-10 03:42:00,62.4,26.1,21.70,South,180,0.0,2.0,25,0.00,,,0.00,VWS V14.01,2013-06-10 10:42:00,
2013-06-10 03:47:00,62.3,26.1,21.70,South,180,0.0,2.0,25,0.00,,,0.00,VWS V14.01,2013-06-10 10:47:00,
2013-06-10 03:52:00,62.4,26.1,21.70,South,180,0.0,2.0,25,0.00,,,0.00,VWS V14.01,2013-06-10 10:52:00,
2013-06-10 03:57:00,62.4,27.1,21.70,South,180,0.0,2.0,26,0.00,,,0.00,VWS V14.01,2013-06-10 10:57:00,
2013-06-10 04:00:00,62.4,27.1,21.70,South,180,0.0,2.0,26,0.00,,,0.00,VWS V14.01,2013-06-10 11:00:00,
2013-06-10 04:02:00,62.3,27.0,21.70,South,180,0.0,0.0,26,0.00,,,0.00,VWS V14.01,2013-06-10 11:02:00,
2013-06-10 04:07:00,62.3,27.0,21.70,South,180,0.0,0.0,26,0.00,,,0.00,VWS V14.01,2013-06-10 11:07:00,
2013-06-10 04:12:00,62.3,27.0,21.70,South,180,0.0,0.0,26,0.00,,,0.00,VWS V14.01,2013-06-10 11:12:00,
2013-06-10 04:17:00,62.3,27.0,21.70,South,180,0.0,0.0,26,0.00,,,0.00,VWS V14.01,2013-06-10 11:17:00,
2013-06-10 04:22:00,62.3,27.0,21.70,South,180,0.0,0.0,26,0.00,,,0.00,VWS V14.01,2013-06-10 11:22:00,
2013-06-10 04:27:00,62.3,27.0,21.70,South,180,0.0,0.0,26,0.00,,,0.00,VWS V14.01,2013-06-10 11:27:00,
2013-06-10 04:30:00,62.3,27.0,21.70,South,180,0.0,0.0,26,0.00,,,0.00,VWS V14.01,2013-06-10 11:30:00,
2013-06-10 04:32:00,62.4,27.1,21.70,South,180,0.0,1.0,26,0.00,,,0.00,VWS V14.01,2013-06-10 11:32:00,
2013-06-10 04:37:00,62.4,27.1,21.70,South,180,0.0,1.0,26,0.00,,,0.00,VWS V14.01,2013-06-10 11:37:00,
2013-06-10 04:42:00,62.4,27.1,21.70,South,180,0.0,1.0,26,0.00,,,0.00,VWS V14.01,2013-06-10 11:42:00,
2013-06-10 04:47:00,62.4,27.1,21.70,South,180,0.0,1.0,26,0.00,,,0.00,VWS V14.01,2013-06-10 11:47:00,
2013-06-10 04:52:00,62.3,27.0,21.70,South,180,0.0,1.0,26,0.00,,,0.00,VWS V14.01,2013-06-10 11:52:00,
2013-06-10 04:57:00,62.3,27.0,21.70,South,180,0.0,1.0,26,0.00,,,0.00,VWS V14.01,2013-06-10 11:57:00,
2013-06-10 05:00:00,62.2,26.9,21.70,South,180,0.0,1.0,26,0.00,,,0.00,VWS V14.01,2013-06-10 12:00:00,
2013-06-10 05:02:00,62.2,26.9,21.70,South,180,0.0,0.0,26,0.00,,,0.00,VWS V14.01,2013-06-10 12:02:00,
2013-06-10 05:07:00,62.1,26.8,21.70,South,180,0.0,0.0,26,0.00,,,0.00,VWS V14.01,2013-06-10 12:07:00,
2013-06-10 05:12:00,62.1,26.8,21.70,South,180,0.0,0.0,26,0.00,,,0.00,VWS V14.01,2013-06-10 12:12:00,
2013-06-10 05:17:00,62.1,26.8,21.70,South,180,0.0,0.0,26,0.00,,,0.00,VWS V14.01,2013-06-10 12:17:00,
2013-06-10 05:22:00,62.0,26.8,21.70,South,180,0.0,0.0,26,0.00,,,0.00,VWS V14.01,2013-06-10 12:22:00,
2013-06-10 05:27:00,62.0,26.8,21.70,South,180,0.0,0.0,26,0.00,,,0.00,VWS V14.01,2013-06-10 12:27:00,
2013-06-10 05:30:00,62.1,26.8,21.70,South,180,0.0,0.0,26,0.00,,,0.00,VWS V14.01,2013-06-10 12:30:00,
2013-06-10 05:32:00,62.1,26.8,21.70,South,180,0.0,0.0,26,0.00,,,0.00,VWS V14.01,2013-06-10 12:32:00,
2013-06-10 05:37:00,62.1,26.8,21.70,South,180,0.0,0.0,26,0.00,,,0.00,VWS V14.01,2013-06-10 12:37:00,
2013-06-10 05:42:00,62.0,26.8,21.70,South,180,0.0,0.0,26,0.00,,,0.00,VWS V14.01,2013-06-10 12:42:00,
2013-06-10 05:47:00,62.1,26.8,21.70,South,180,0.0,0.0,26,0.00,,,0.00,VWS V14.01,2013-06-10 12:47:00,
2013-06-10 05:52:00,62.1,26.8,21.70,South,180,0.0,0.0,26,0.00,,,0.00,VWS V14.01,2013-06-10 12:52:00,
2013-06-10 05:57:00,62.0,26.8,21.70,South,180,0.0,0.0,26,0.00,,,0.00,VWS V14.01,2013-06-10 12:57:00,
2013-06-10 06:00:00,62.1,26.8,21.70,South,180,0.0,0.0,26,0.00,,,0.00,VWS V14.01,2013-06-10 13:00:00,
2013-06-10 06:02:00,62.1,26.8,21.70,South,180,0.0,0.0,26,0.00,,,0.00,VWS V14.01,2013-06-10 13:02:00,
2013-06-10 06:07:00,62.1,26.8,21.70,South,180,0.0,0.0,26,0.00,,,0.00,VWS V14.01,2013-06-10 13:07:00,
2013-06-10 06:12:00,62.1,25.9,21.70,South,180,0.0,0.0,25,0.00,,,0.00,VWS V14.01,2013-06-10 13:12:00,
2013-06-10 06:17:00,62.1,26.8,21.70,South,180,0.0,0.0,26,0.00,,,0.00,VWS V14.01,2013-06-10 13:17:00,
2013-06-10 06:22:00,62.1,26.8,21.70,South,180,0.0,0.0,26,0.00,,,0.00,VWS V14.01,2013-06-10 13:22:00,
2013-06-10 06:27:00,62.2,26.9,21.70,South,180,0.0,0.0,26,0.00,,,0.00,VWS V14.01,2013-06-10 13:27:00,
2013-06-10 06:30:00,62.2,26.9,21.70,South,180,0.0,0.0,26,0.00,,,0.00,VWS V14.01,2013-06-10 13:30:00,
2013-06-10 06:32:00,62.3,27.0,21.70,South,180,0.0,0.0,26,0.00,,,0.00,VWS V14.01,2013-06-10 13:32:00,
2013-06-10 06:37:00,62.3,27.0,21.70,South,180,0.0,0.0,26,0.00,,,0.00,VWS V14.01,2013-06-10 13:37:00,
2013-06-10 06:42:00,62.3,27.0,21.70,South,180,0.0,0.0,26,0.00,,,0.00,VWS V14.01,2013-06-10 13:42:00,
2013-06-10 06:47:00,62.5,27.2,21.70,South,180,0.0,0.0,26,0.00,,,0.00,VWS V14.01,2013-06-10 13:47:00,
2013-06-10 06:52:00,62.6,27.3,21.70,ESE,111,0.0,1.0,26,0.00,,,0.00,VWS V14.01,2013-06-10 13:52:00,
2013-06-10 06:57:00,62.7,27.4,21.70,ESE,111,0.0,1.0,26,0.00,,,0.00,VWS V14.01,2013-06-10 13:57:00,
2013-06-10 07:00:00,62.8,27.4,21.70,ESE,111,0.0,1.0,26,0.00,,,0.00,VWS V14.01,2013-06-10 14:00:00,
2013-06-10 07:02:00,62.9,27.5,21.70,ESE,111,0.0,0.0,26,0.00,,,0.00,VWS V14.01,2013-06-10 14:02:00,
2013-06-10 07:07:00,63.0,27.6,21.70,ESE,111,0.0,0.0,26,0.00,,,0.00,VWS V14.01,2013-06-10 14:07:00,
2013-06-10 07:12:00,63.1,27.7,21.70,ESE,111,0.0,0.0,26,0.00,,,0.00,VWS V14.01,2013-06-10 14:12:00,
2013-06-10 07:17:00,63.2,27.8,21.70,ESE,111,0.0,0.0,26,0.00,,,0.00,VWS V14.01,2013-06-10 14:17:00,
2013-06-10 07:22:00,63.4,28.9,21.70,ESE,111,0.0,0.0,27,0.00,,,0.00,VWS V14.01,2013-06-10 14:22:00,
2013-06-10 07:27:00,63.5,29.0,21.70,ESE,111,0.0,4.0,27,0.00,,,0.00,VWS V14.01,2013-06-10 14:27:00,
2013-06-10 07:30:00,63.5,29.0,21.70,ESE,111,1.0,4.0,27,0.00,,,0.00,VWS V14.01,2013-06-10 14:30:00,
2013-06-10 07:32:00,63.7,29.1,21.70,ESE,111,0.0,2.0,27,0.00,,,0.00,VWS V14.01,2013-06-10 14:32:00,
2013-06-10 07:37:00,63.8,29.2,21.70,ESE,111,0.0,2.0,27,0.00,,,0.00,VWS V14.01,2013-06-10 14:37:00,
2013-06-10 07:42:00,63.9,29.3,21.70,ESE,111,2.0,2.0,27,0.00,,,0.00,VWS V14.01,2013-06-10 14:42:00,
2013-06-10 07:47:00,63.9,29.3,21.70,East,99,0.0,4.0,27,0.00,,,0.00,VWS V14.01,2013-06-10 14:47:00,
2013-06-10 07:52:00,64.0,29.4,21.70,East,97,0.0,4.0,27,0.00,,,0.00,VWS V14.01,2013-06-10 14:52:00,
2013-06-10 07:57:00,64.2,29.5,21.70,ENE,76,1.0,4.0,27,0.00,,,0.00,VWS V14.01,2013-06-10 14:57:00,
2013-06-10 08:00:00,64.2,30.4,21.70,ENE,76,1.0,4.0,28,0.00,,,0.00,VWS V14.01,2013-06-10 15:00:00,
2013-06-10 08:02:00,64.3,29.6,21.70,ENE,74,2.0,3.0,27,0.00,,,0.00,VWS V14.01,2013-06-10 15:02:00,
2013-06-10 08:07:00,64.4,30.6,21.70,ENE,74,3.0,3.0,28,0.00,,,0.00,VWS V14.01,2013-06-10 15:07:00,
2013-06-10 08:12:00,64.4,30.6,21.70,NNE,22,1.0,4.0,28,0.00,,,0.00,VWS V14.01,2013-06-10 15:12:00,
2013-06-10 08:17:00,64.5,30.7,21.70,NE,42,3.0,4.0,28,0.00,,,0.00,VWS V14.01,2013-06-10 15:17:00,
2013-06-10 08:22:00,64.6,31.6,21.70,NE,44,3.0,4.0,29,0.00,,,0.00,VWS V14.01,2013-06-10 15:22:00,
2013-06-10 08:27:00,64.9,31.9,21.70,NE,51,3.0,4.0,29,0.00,,,0.00,VWS V14.01,2013-06-10 15:27:00,
2013-06-10 08:30:00,65.0,32.0,21.70,NE,51,0.0,4.0,29,0.00,,,0.00,VWS V14.01,2013-06-10 15:30:00,
2013-06-10 08:32:00,65.3,32.3,21.70,NE,51,0.0,1.0,29,0.00,,,0.00,VWS V14.01,2013-06-10 15:32:00,
2013-06-10 08:37:00,65.8,32.7,21.70,NE,51,1.0,3.0,29,0.00,,,0.00,VWS V14.01,2013-06-10 15:37:00,
2013-06-10 08:42:00,65.8,34.3,21.70,NE,51,1.0,3.0,31,0.00,,,0.00,VWS V14.01,2013-06-10 15:42:00,
2013-06-10 08:47:00,65.7,34.3,21.70,ENE,59,2.0,3.0,31,0.00,,,0.00,VWS V14.01,2013-06-10 15:47:00,
2013-06-10 08:52:00,65.6,35.0,21.70,SE,128,0.0,5.0,32,0.00,,,0.00,VWS V14.01,2013-06-10 15:52:00,
2013-06-10 08:57:00,65.8,35.2,21.70,East,101,1.0,5.0,32,0.00,,,0.00,VWS V14.01,2013-06-10 15:57:00,
2013-06-10 09:00:00,65.8,35.2,21.70,East,96,0.0,5.0,32,0.00,,,0.00,VWS V14.01,2013-06-10 16:00:00,
2013-06-10 09:02:00,66.0,35.3,21.70,East,96,0.0,2.0,32,0.00,,,0.00,VWS V14.01,2013-06-10 16:02:00,
2013-06-10 09:07:00,66.1,35.4,21.70,South,185,0.0,5.0,32,0.00,,,0.00,VWS V14.01,2013-06-10 16:07:00,
2013-06-10 09:12:00,66.1,36.2,21.70,ESE,105,0.0,5.0,33,0.00,,,0.00,VWS V14.01,2013-06-10 16:12:00,
2013-06-10 09:17:00,66.2,36.3,21.70,East,101,0.0,5.0,33,0.00,,,0.00,VWS V14.01,2013-06-10 16:17:00,
2013-06-10 09:22:00,66.4,36.5,21.70,ESE,108,1.0,5.0,33,0.00,,,0.00,VWS V14.01,2013-06-10 16:22:00,
2013-06-10 09:27:00,66.6,36.6,21.70,ESE,107,1.0,5.0,33,0.00,,,0.00,VWS V14.01,2013-06-10 16:27:00,
2013-06-10 09:30:00,66.7,36.7,21.70,ESE,105,0.0,5.0,33,0.00,,,0.00,VWS V14.01,2013-06-10 16:30:00,
2013-06-10 09:32:00,66.7,36.7,21.70,ESE,105,0.0,0.0,33,0.00,,,0.00,VWS V14.01,2013-06-10 16:32:00,
2013-06-10 09:37:00,67.0,37.0,21.70,ESE,106,0.0,2.0,33,0.00,,,0.00,VWS V14.01,2013-06-10 16:37:00,
2013-06-10 09:42:00,67.0,37.0,21.70,ENE,64,4.0,6.0,33,0.00,,,0.00,VWS V14.01,2013-06-10 16:42:00,
2013-06-10 09:47:00,66.8,36.8,21.70,ENE,71,2.0,6.0,33,0.00,,,0.00,VWS V14.01,2013-06-10 16:47:00,
2013-06-10 09:52:00,66.9,36.9,21.70,ENE,73,0.0,6.0,33,0.00,,,0.00,VWS V14.01,2013-06-10 16:52:00,
2013-06-10 09:57:00,67.3,37.2,21.70,ENE,78,3.0,6.0,33,0.00,,,0.00,VWS V14.01,2013-06-10 16:57:00,
2013-06-10 10:00:00,67.4,37.3,21.70,ENE,78,0.0,6.0,33,0.00,,,0.00,VWS V14.01,2013-06-10 17:00:00,
2013-06-10 10:02:00,67.8,37.7,21.70,East,80,1.0,4.0,33,0.00,,,0.00,VWS V14.01,2013-06-10 17:02:00,
2013-06-10 10:07:00,68.3,38.1,21.70,East,89,3.0,4.0,33,0.00,,,0.00,VWS V14.01,2013-06-10 17:07:00,
2013-06-10 10:12:00,68.9,37.8,21.70,SE,128,1.0,6.0,32,0.00,,,0.00,VWS V14.01,2013-06-10 17:12:00,
2013-06-10 10:17:00,69.7,38.5,21.70,ENE,67,1.0,6.0,32,0.00,,,0.00,VWS V14.01,2013-06-10 17:17:00,
2013-06-10 10:22:00,70.0,38.8,21.70,East,92,2.0,6.0,32,0.00,,,0.00,VWS V14.01,2013-06-10 17:22:00,
2013-06-10 10:27:00,70.1,38.9,21.70,SE,146,0.0,6.0,32,0.00,,,0.00,VWS V14.01,2013-06-10 17:27:00,
2013-06-10 10:30:00,70.4,39.2,21.70,SSE,160,1.0,6.0,32,0.00,,,0.00,VWS V14.01,2013-06-10 17:30:00,
2013-06-10 10:32:00,70.8,38.7,21.70,ESE,113,1.0,7.0,31,0.00,,,0.00,VWS V14.01,2013-06-10 17:32:00,
2013-06-10 10:37:00,70.8,39.5,21.70,East,98,6.0,7.0,32,0.00,,,0.00,VWS V14.01,2013-06-10 17:37:00,
2013-06-10 10:42:00,70.2,39.8,21.70,ESE,121,2.0,7.0,33,0.00,,,0.00,VWS V14.01,2013-06-10 17:42:00,
2013-06-10 10:47:00,69.7,39.3,21.70,SE,142,1.0,7.0,33,0.00,,,0.00,VWS V14.01,2013-06-10 17:47:00,
2013-06-10 10:52:00,70.2,39.8,21.70,SE,134,2.0,7.0,33,0.00,,,0.00,VWS V14.01,2013-06-10 17:52:00,
2013-06-10 10:57:00,70.8,39.5,21.70,SSE,147,4.0,7.0,32,0.00,,,0.00,VWS V14.01,2013-06-10 17:57:00,
2013-06-10 11:00:00,70.9,39.6,21.70,ESE,103,1.0,7.0,32,0.00,,,0.00,VWS V14.01,2013-06-10 18:00:00,
2013-06-10 11:02:00,71.1,40.6,21.70,North,5,1.0,4.0,33,0.00,,,0.00,VWS V14.01,2013-06-10 18:02:00,
2013-06-10 11:07:00,71.4,40.8,21.70,WSW,253,5.0,6.0,33,0.00,,,0.00,VWS V14.01,2013-06-10 18:07:00,
2013-06-10 11:12:00,70.1,40.5,21.70,SSW,193,5.0,13.0,34,0.00,,,0.00,VWS V14.01,2013-06-10 18:12:00,
2013-06-10 11:17:00,70.5,40.0,21.70,SSW,198,3.0,13.0,33,0.00,,,0.00,VWS V14.01,2013-06-10 18:17:00,
2013-06-10 11:22:00,71.1,40.6,21.70,SW,219,4.0,13.0,33,0.00,,,0.00,VWS V14.01,2013-06-10 18:22:00,
2013-06-10 11:27:00,70.1,39.7,21.70,WSW,247,5.0,13.0,33,0.00,,,0.00,VWS V14.01,2013-06-10 18:27:00,
2013-06-10 11:30:00,70.0,40.4,21.70,SW,236,7.0,13.0,34,0.00,,,0.00,VWS V14.01,2013-06-10 18:30:00,
2013-06-10 11:32:00,69.7,40.1,21.70,SW,221,7.0,8.0,34,0.00,,,0.00,VWS V14.01,2013-06-10 18:32:00,
2013-06-10 11:37:00,69.1,39.6,21.70,SW,232,6.0,11.0,34,0.00,,,0.00,VWS V14.01,2013-06-10 18:37:00,
2013-06-10 11:42:00,69.3,39.8,21.70,WSW,245,6.0,11.0,34,0.00,,,0.00,VWS V14.01,2013-06-10 18:42:00,
2013-06-10 11:47:00,69.3,39.8,21.70,WSW,248,4.0,11.0,34,0.00,,,0.00,VWS V14.01,2013-06-10 18:47:00,
2013-06-10 11:52:00,69.5,39.9,21.70,SSW,209,3.0,11.0,34,0.00,,,0.00,VWS V14.01,2013-06-10 18:52:00,
2013-06-10 11:57:00,69.6,39.2,21.70,SW,215,1.0,11.0,33,0.00,,,0.00,VWS V14.01,2013-06-10 18:57:00,
2013-06-10 12:00:00,69.9,39.5,21.70,SSW,196,1.0,11.0,33,0.00,,,0.00,VWS V14.01,2013-06-10 19:00:00,
2013-06-10 12:02:00,70.3,39.9,21.70,SW,225,7.0,8.0,33,0.00,,,0.00,VWS V14.01,2013-06-10 19:02:00,
2013-06-10 12:07:00,69.3,39.8,21.70,WSW,244,7.0,12.0,34,0.00,,,0.00,VWS V14.01,2013-06-10 19:07:00,
2013-06-10 12:12:00,68.6,39.1,21.70,SW,224,6.0,12.0,34,0.00,,,0.00,VWS V14.01,2013-06-10 19:12:00,
2013-06-10 12:17:00,68.9,38.6,21.70,West,259,6.0,12.0,33,0.00,,,0.00,VWS V14.01,2013-06-10 19:17:00,
2013-06-10 12:22:00,68.9,38.6,21.70,SSW,198,3.0,12.0,33,0.00,,,0.00,VWS V14.01,2013-06-10 19:22:00,
2013-06-10 12:27:00,69.1,38.8,21.70,SSW,207,0.0,12.0,33,0.00,,,0.00,VWS V14.01,2013-06-10 19:27:00,
2013-06-10 12:30:00,69.1,38.8,21.70,WSW,239,8.0,12.0,33,0.00,,,0.00,VWS V14.01,2013-06-10 19:30:00,
2013-06-10 12:32:00,68.7,38.5,21.70,SW,234,4.0,12.0,33,0.00,,,0.00,VWS V14.01,2013-06-10 19:32:00,
2013-06-10 12:37:00,68.9,38.6,21.70,SSW,196,6.0,12.0,33,0.00,,,0.00,VWS V14.01,2013-06-10 19:37:00,
2013-06-10 12:42:00,68.9,38.6,21.70,SW,236,5.0,12.0,33,0.00,,,0.00,VWS V14.01,2013-06-10 19:42:00,
2013-06-10 12:47:00,68.6,38.4,21.70,West,270,7.0,13.0,33,0.00,,,0.00,VWS V14.01,2013-06-10 19:47:00,
2013-06-10 12:52:00,68.5,38.3,21.70,SSW,212,6.0,14.0,33,0.00,,,0.00,VWS V14.01,2013-06-10 19:52:00,
2013-06-10 12:57:00,69.0,38.7,21.70,SSW,211,5.0,14.0,33,0.00,,,0.00,VWS V14.01,2013-06-10 19:57:00,
2013-06-10 13:00:00,69.0,38.7,21.70,SSW,211,4.0,14.0,33,0.00,,,0.00,VWS V14.01,2013-06-10 20:00:00,
2013-06-10 13:02:00,69.3,39.0,21.70,SSW,207,9.0,10.0,33,0.00,,,0.00,VWS V14.01,2013-06-10 20:02:00,
2013-06-10 13:07:00,69.0,38.7,21.70,WSW,253,10.0,11.0,33,0.00,,,0.00,VWS V14.01,2013-06-10 20:07:00,
2013-06-10 13:12:00,69.5,39.2,21.70,SSW,196,2.0,11.0,33,0.00,,,0.00,VWS V14.01,2013-06-10 20:12:00,
2013-06-10 13:17:00,70.1,39.7,21.70,SSW,196,4.0,11.0,33,0.00,,,0.00,VWS V14.01,2013-06-10 20:17:00,
2013-06-10 13:22:00,70.2,39.8,21.70,SSW,192,4.0,11.0,33,0.00,,,0.00,VWS V14.01,2013-06-10 20:22:00,
2013-06-10 13:27:00,69.8,39.4,21.70,WSW,238,2.0,11.0,33,0.00,,,0.00,VWS V14.01,2013-06-10 20:27:00,
2013-06-10 13:30:00,69.7,40.1,21.70,South,183,5.0,11.0,34,0.00,,,0.00,VWS V14.01,2013-06-10 20:30:00,
2013-06-10 13:32:00,69.9,40.3,21.70,West,265,9.0,10.0,34,0.00,,,0.00,VWS V14.01,2013-06-10 20:32:00,
2013-06-10 13:37:00,69.8,40.2,21.70,SSW,207,4.0,12.0,34,0.00,,,0.00,VWS V14.01,2013-06-10 20:37:00,
2013-06-10 13:42:00,69.5,39.9,21.70,SW,220,5.0,12.0,34,0.00,,,0.00,VWS V14.01,2013-06-10 20:42:00,
2013-06-10 13:47:00,69.8,40.2,21.70,SW,234,4.0,12.0,34,0.00,,,0.00,VWS V14.01,2013-06-10 20:47:00,
2013-06-10 13:52:00,70.6,40.1,21.70,West,269,1.0,12.0,33,0.00,,,0.00,VWS V14.01,2013-06-10 20:52:00,
2013-06-10 13:57:00,71.1,40.6,21.70,South,184,1.0,12.0,33,0.00,,,0.00,VWS V14.01,2013-06-10 20:57:00,
2013-06-10 14:00:00,71.1,40.6,21.70,South,181,1.0,12.0,33,0.00,,,0.00,VWS V14.01,2013-06-10 21:00:00,
2013-06-10 14:02:00,70.9,40.4,21.70,SW,235,4.0,9.0,33,0.00,,,0.00,VWS V14.01,2013-06-10 21:02:00,
2013-06-10 14:07:00,70.5,40.8,21.70,SW,227,7.0,9.0,34,0.00,,,0.00,VWS V14.01,2013-06-10 21:07:00,
2013-06-10 14:12:00,70.8,41.1,21.70,SSW,198,3.0,9.0,34,0.00,,,0.00,VWS V14.01,2013-06-10 21:12:00,
2013-06-10 14:17:00,71.3,41.5,21.70,South,179,2.0,10.0,34,0.00,,,0.00,VWS V14.01,2013-06-10 21:17:00,
2013-06-10 14:22:00,71.3,40.7,21.70,WNW,285,6.0,10.0,33,0.00,,,0.00,VWS V14.01,2013-06-10 21:22:00,
2013-06-10 14:27:00,71.2,41.4,21.70,WSW,250,3.0,11.0,34,0.00,,,0.00,VWS V14.01,2013-06-10 21:27:00,
2013-06-10 14:30:00,71.3,41.5,21.70,SW,236,3.0,11.0,34,0.00,,,0.00,VWS V14.01,2013-06-10 21:30:00,
2013-06-10 14:32:00,70.8,41.1,21.70,SSE,167,9.0,10.0,34,0.00,,,0.00,VWS V14.01,2013-06-10 21:32:00,
2013-06-10 14:37:00,70.4,40.7,21.70,WNW,290,9.0,12.0,34,0.00,,,0.00,VWS V14.01,2013-06-10 21:37:00,
2013-06-10 14:42:00,71.3,41.5,21.70,SW,219,4.0,12.0,34,0.00,,,0.00,VWS V14.01,2013-06-10 21:42:00,
2013-06-10 14:47:00,70.6,40.9,21.70,SW,234,7.0,12.0,34,0.00,,,0.00,VWS V14.01,2013-06-10 21:47:00,
2013-06-10 14:52:00,70.2,41.3,21.70,SW,233,1.0,13.0,35,0.00,,,0.00,VWS V14.01,2013-06-10 21:52:00,
2013-06-10 14:57:00,70.5,41.6,21.70,WSW,254,3.0,13.0,35,0.00,,,0.00,VWS V14.01,2013-06-10 21:57:00,
2013-06-10 15:00:00,70.8,41.1,21.70,WSW,248,8.0,13.0,34,0.00,,,0.00,VWS V14.01,2013-06-10 22:00:00,
2013-06-10 15:02:00,70.4,40.7,21.70,SW,225,7.0,13.0,34,0.00,,,0.00,VWS V14.01,2013-06-10 22:02:00,
2013-06-10 15:07:00,69.4,40.6,21.70,SW,231,1.0,14.0,35,0.00,,,0.00,VWS V14.01,2013-06-10 22:07:00,
2013-06-10 15:12:00,70.0,41.1,21.70,South,191,8.0,14.0,35,0.00,,,0.00,VWS V14.01,2013-06-10 22:12:00,
2013-06-10 15:17:00,69.9,41.0,21.70,SSW,205,3.0,14.0,35,0.00,,,0.00,VWS V14.01,2013-06-10 22:17:00,
2013-06-10 15:22:00,69.7,40.8,21.70,SSW,193,5.0,14.0,35,0.00,,,0.00,VWS V14.01,2013-06-10 22:22:00,
2013-06-10 15:27:00,70.0,41.1,21.70,SW,233,2.0,14.0,35,0.00,,,0.00,VWS V14.01,2013-06-10 22:27:00,
2013-06-10 15:30:00,70.1,41.2,21.70,WSW,252,3.0,14.0,35,0.00,,,0.00,VWS V14.01,2013-06-10 22:30:00,
2013-06-10 15:32:00,69.9,41.0,21.70,SSW,210,12.0,12.0,35,0.00,,,0.00,VWS V14.01,2013-06-10 22:32:00,
2013-06-10 15:37:00,69.7,40.8,21.70,SW,230,6.0,12.0,35,0.00,,,0.00,VWS V14.01,2013-06-10 22:37:00,
2013-06-10 15:42:00,69.4,40.6,21.70,SSW,201,12.0,12.0,35,0.00,,,0.00,VWS V14.01,2013-06-10 22:42:00,
2013-06-10 15:47:00,69.0,40.2,21.70,WNW,286,4.0,12.0,35,0.00,,,0.00,VWS V14.01,2013-06-10 22:47:00,
2013-06-10 15:52:00,69.8,40.9,21.70,SW,216,8.0,12.0,35,0.00,,,0.00,VWS V14.01,2013-06-10 22:52:00,
2013-06-10 15:57:00,69.3,40.5,21.70,WSW,244,6.0,15.0,35,0.00,,,0.00,VWS V14.01,2013-06-10 22:57:00,
2013-06-10 16:00:00,69.3,40.5,21.70,WSW,241,7.0,15.0,35,0.00,,,0.00,VWS V14.01,2013-06-10 23:00:00,
2013-06-10 16:02:00,69.8,40.2,21.70,SW,229,2.0,8.0,34,0.00,,,0.00,VWS V14.01,2013-06-10 23:02:00,
2013-06-10 16:07:00,70.2,40.5,21.70,WSW,240,9.0,12.0,34,0.00,,,0.00,VWS V14.01,2013-06-10 23:07:00,
2013-06-10 16:12:00,69.2,40.4,21.70,SSW,209,13.0,13.0,35,0.00,,,0.00,VWS V14.01,2013-06-10 23:12:00,
2013-06-10 16:17:00,69.0,40.2,21.70,SSW,207,6.0,13.0,35,0.00,,,0.00,VWS V14.01,2013-06-10 23:17:00,
2013-06-10 16:22:00,69.0,40.2,21.70,SW,227,7.0,13.0,35,0.00,,,0.00,VWS V14.01,2013-06-10 23:22:00,
2013-06-10 16:27:00,69.0,40.2,21.70,SSW,204,2.0,13.0,35,0.00,,,0.00,VWS V14.01,2013-06-10 23:27:00,
2013-06-10 16:30:00,69.0,40.2,21.70,SSW,205,10.0,13.0,35,0.00,,,0.00,VWS V14.01,2013-06-10 23:30:00,
2013-06-10 16:32:00,68.8,40.1,21.70,SSW,213,9.0,12.0,35,0.00,,,0.00,VWS V14.01,2013-06-10 23:32:00,
2013-06-10 16:37:00,68.9,40.2,21.70,WSW,241,5.0,13.0,35,0.00,,,0.00,VWS V14.01,2013-06-10 23:37:00,
2013-06-10 16:42:00,69.2,40.4,21.70,WSW,258,8.0,13.0,35,0.00,,,0.00,VWS V14.01,2013-06-10 23:42:00,
2013-06-10 16:47:00,69.7,40.8,21.70,WSW,238,2.0,13.0,35,0.00,,,0.00,VWS V14.01,2013-06-10 23:47:00,
2013-06-10 16:52:00,70.9,41.2,21.70,West,275,2.0,13.0,34,0.00,,,0.00,VWS V14.01,2013-06-10 23:52:00,
2013-06-10 16:57:00,70.5,40.8,21.70,SW,236,9.0,13.0,34,0.00,,,0.00,VWS V14.01,2013-06-10 23:57:00,
2013-06-10 17:00:00,70.0,40.4,21.70,SW,227,5.0,13.0,34,0.00,,,0.00,VWS V14.01,2013-06-11 00:00:00,
2013-06-10 17:02:00,69.2,40.4,21.70,South,185,5.0,9.0,35,0.00,,,0.00,VWS V14.01,2013-06-11 00:02:00,
2013-06-10 17:07:00,69.1,40.3,21.70,West,260,4.0,10.0,35,0.00,,,0.00,VWS V14.01,2013-06-11 00:07:00,
2013-06-10 17:12:00,69.5,39.9,21.70,SW,231,10.0,12.0,34,0.00,,,0.00,VWS V14.01,2013-06-11 00:12:00,
2013-06-10 17:17:00,69.0,39.5,21.70,South,188,4.0,15.0,34,0.00,,,0.00,VWS V14.01,2013-06-11 00:17:00,
2013-06-10 17:22:00,68.6,39.1,21.70,SW,229,4.0,15.0,34,0.00,,,0.00,VWS V14.01,2013-06-11 00:22:00,
2013-06-10 17:27:00,68.6,39.1,21.70,SSW,209,5.0,15.0,34,0.00,,,0.00,VWS V14.01,2013-06-11 00:27:00,
2013-06-10 17:30:00,68.6,39.1,21.70,SW,229,8.0,15.0,34,0.00,,,0.00,VWS V14.01,2013-06-11 00:30:00,
2013-06-10 17:32:00,69.0,38.7,21.70,West,274,3.0,8.0,33,0.00,,,0.00,VWS V14.01,2013-06-11 00:32:00,
2013-06-10 17:37:00,68.6,39.1,21.70,West,275,7.0,10.0,34,0.00,,,0.00,VWS V14.01,2013-06-11 00:37:00,
2013-06-10 17:42:00,68.7,38.5,21.70,SSW,213,4.0,10.0,33,0.00,,,0.00,VWS V14.01,2013-06-11 00:42:00,
2013-06-10 17:47:00,68.9,38.6,21.70,WSW,243,5.0,10.0,33,0.00,,,0.00,VWS V14.01,2013-06-11 00:47:00,
2013-06-10 17:52:00,68.4,39.0,21.70,WSW,254,4.0,10.0,34,0.00,,,0.00,VWS V14.01,2013-06-11 00:52:00,
2013-06-10 17:57:00,68.6,39.1,21.70,WSW,258,4.0,10.0,34,0.00,,,0.00,VWS V14.01,2013-06-11 00:57:00,
2013-06-10 18:00:00,68.5,39.0,21.70,SW,219,4.0,10.0,34,0.00,,,0.00,VWS V14.01,2013-06-11 01:00:00,
2013-06-10 18:02:00,68.5,39.0,21.70,SSW,194,3.0,11.0,34,0.00,,,0.00,VWS V14.01,2013-06-11 01:02:00,
2013-06-10 18:07:00,68.4,39.0,21.70,WSW,254,2.0,11.0,34,0.00,,,0.00,VWS V14.01,2013-06-11 01:07:00,
2013-06-10 18:12:00,68.2,38.8,21.70,WSW,242,3.0,11.0,34,0.00,,,0.00,VWS V14.01,2013-06-11 01:12:00,
2013-06-10 18:17:00,68.0,37.8,21.70,SW,226,0.0,11.0,33,0.00,,,0.00,VWS V14.01,2013-06-11 01:17:00,
2013-06-10 18:22:00,68.4,38.2,21.70,WSW,237,4.0,11.0,33,0.00,,,0.00,VWS V14.01,2013-06-11 01:22:00,
2013-06-10 18:27:00,68.4,38.2,21.70,SW,236,7.0,11.0,33,0.00,,,0.00,VWS V14.01,2013-06-11 01:27:00,
2013-06-10 18:30:00,68.2,38.0,21.70,WSW,238,7.0,11.0,33,0.00,,,0.00,VWS V14.01,2013-06-11 01:30:00,
2013-06-10 18:32:00,68.1,37.9,21.70,SSW,213,4.0,9.0,33,0.00,,,0.00,VWS V14.01,2013-06-11 01:32:00,
2013-06-10 18:37:00,67.9,38.5,21.70,WSW,241,5.0,9.0,34,0.00,,,0.00,VWS V14.01,2013-06-11 01:37:00,
2013-06-10 18:42:00,67.6,37.5,21.70,SSW,198,4.0,11.0,33,0.00,,,0.00,VWS V14.01,2013-06-11 01:42:00,
2013-06-10 18:47:00,67.6,37.5,21.70,WSW,244,5.0,11.0,33,0.00,,,0.00,VWS V14.01,2013-06-11 01:47:00,
2013-06-10 18:52:00,67.3,37.2,21.70,SSW,208,4.0,11.0,33,0.00,,,0.00,VWS V14.01,2013-06-11 01:52:00,
2013-06-10 18:57:00,67.5,36.6,21.70,West,267,7.0,11.0,32,0.00,,,0.00,VWS V14.01,2013-06-11 01:57:00,
2013-06-10 19:00:00,67.5,36.6,21.70,West,269,6.0,11.0,32,0.00,,,0.00,VWS V14.01,2013-06-11 02:00:00,
2013-06-10 19:02:00,67.3,37.2,21.70,West,274,10.0,10.0,33,0.00,,,0.00,VWS V14.01,2013-06-11 02:02:00,
2013-06-10 19:07:00,67.3,36.5,21.70,WSW,254,8.0,13.0,32,0.00,,,0.00,VWS V14.01,2013-06-11 02:07:00,
2013-06-10 19:12:00,66.9,36.1,21.70,West,275,7.0,13.0,32,0.00,,,0.00,VWS V14.01,2013-06-11 02:12:00,
2013-06-10 19:17:00,66.7,35.9,21.70,SW,224,5.0,13.0,32,0.00,,,0.00,VWS V14.01,2013-06-11 02:17:00,
2013-06-10 19:22:00,66.5,34.1,21.70,West,275,6.0,13.0,30,0.00,,,0.00,VWS V14.01,2013-06-11 02:22:00,
2013-06-10 19:27:00,66.3,33.1,21.70,SSW,200,3.0,13.0,29,0.00,,,0.00,VWS V14.01,2013-06-11 02:27:00,
2013-06-10 19:30:00,66.4,33.2,21.70,West,267,3.0,13.0,29,0.00,,,0.00,VWS V14.01,2013-06-11 02:30:00,
2013-06-10 19:32:00,66.3,32.2,21.70,SSW,209,6.0,10.0,28,0.00,,,0.00,VWS V14.01,2013-06-11 02:32:00,
2013-06-10 19:37:00,66.0,31.1,21.70,SW,236,3.0,10.0,27,0.00,,,0.00,VWS V14.01,2013-06-11 02:37:00,
2013-06-10 19:42:00,65.9,30.1,21.70,West,259,4.0,10.0,26,0.00,,,0.00,VWS V14.01,2013-06-11 02:42:00,
2013-06-10 19:47:00,65.7,29.0,21.70,SW,231,5.0,11.0,25,0.00,,,0.00,VWS V14.01,2013-06-11 02:47:00,
2013-06-10 19:52:00,65.5,28.8,21.70,West,267,0.0,11.0,25,0.00,,,0.00,VWS V14.01,2013-06-11 02:52:00,
2013-06-10 19:57:00,65.3,28.6,21.70,SW,236,5.0,11.0,25,0.00,,,0.00,VWS V14.01,2013-06-11 02:57:00,
2013-06-10 20:00:00,65.3,28.6,21.70,SW,223,5.0,11.0,25,0.00,,,0.00,VWS V14.01,2013-06-11 03:00:00,
2013-06-10 20:02:00,65.2,28.5,21.70,WSW,250,4.0,7.0,25,0.00,,,0.00,VWS V14.01,2013-06-11 03:02:00,
2013-06-10 20:07:00,65.2,27.5,21.70,SW,215,5.0,9.0,24,0.00,,,0.00,VWS V14.01,2013-06-11 03:07:00,
2013-06-10 20:12:00,65.1,27.4,21.70,SW,232,5.0,9.0,24,0.00,,,0.00,VWS V14.01,2013-06-11 03:12:00,
2013-06-10 20:17:00,65.1,27.4,21.70,WSW,242,5.0,9.0,24,0.00,,,0.00,VWS V14.01,2013-06-11 03:17:00,
2013-06-10 20:22:00,65.1,26.4,21.70,SW,234,3.0,9.0,23,0.00,,,0.00,VWS V14.01,2013-06-11 03:22:00,
2013-06-10 20:27:00,64.9,26.2,21.70,WNW,290,0.0,9.0,23,0.00,,,0.00,VWS V14.01,2013-06-11 03:27:00,
2013-06-10 20:30:00,64.9,26.2,21.70,WNW,286,3.0,9.0,23,0.00,,,0.00,VWS V14.01,2013-06-11 03:30:00,
2013-06-10 20:32:00,64.8,26.2,21.70,West,275,0.0,6.0,23,0.00,,,0.00,VWS V14.01,2013-06-11 03:32:00,
2013-06-10 20:37:00,64.8,26.2,21.70,WSW,258,1.0,6.0,23,0.00,,,0.00,VWS V14.01,2013-06-11 03:37:00,
2013-06-10 20:42:00,64.8,26.2,21.70,WSW,250,3.0,6.0,23,0.00,,,0.00,VWS V14.01,2013-06-11 03:42:00,
2013-06-10 20:47:00,64.8,25.1,21.70,WSW,250,0.0,6.0,22,0.00,,,0.00,VWS V14.01,2013-06-11 03:47:00,
2013-06-10 20:52:00,64.7,25.0,21.70,WSW,258,0.0,6.0,22,0.00,,,0.00,VWS V14.01,2013-06-11 03:52:00,
2013-06-10 20:57:00,64.7,25.0,21.70,WSW,257,1.0,6.0,22,0.00,,,0.00,VWS V14.01,2013-06-11 03:57:00,
2013-06-10 21:00:00,64.6,24.9,21.70,WSW,257,0.0,6.0,22,0.00,,,0.00,VWS V14.01,2013-06-11 04:00:00,
2013-06-10 21:01:00,64.6,24.9,21.70,WSW,257,0.0,0.0,22,0.00,,,0.00,VWS V14.01,2013-06-11 04:01:00,
2013-06-10 21:06:00,64.5,24.8,21.70,WSW,257,0.0,2.0,22,0.00,,,0.00,VWS V14.01,2013-06-11 04:06:00,
2013-06-10 21:11:00,64.5,23.7,21.70,WSW,257,1.0,2.0,21,0.00,,,0.00,VWS V14.01,2013-06-11 04:11:00,
2013-06-10 21:16:00,64.5,23.7,21.70,WSW,257,0.0,2.0,21,0.00,,,0.00,VWS V14.01,2013-06-11 04:16:00,
2013-06-10 21:21:00,64.5,23.7,21.70,WSW,257,1.0,2.0,21,0.00,,,0.00,VWS V14.01,2013-06-11 04:21:00,
2013-06-10 21:26:00,64.5,23.7,21.70,WSW,250,3.0,4.0,21,0.00,,,0.00,VWS V14.01,2013-06-11 04:26:00,
2013-06-10 21:30:00,64.4,23.6,21.70,WSW,250,0.0,4.0,21,0.00,,,0.00,VWS V14.01,2013-06-11 04:30:00,
2013-06-10 21:31:00,64.3,23.6,21.70,WSW,250,0.0,4.0,21,0.00,,,0.00,VWS V14.01,2013-06-11 04:31:00,
2013-06-10 21:36:00,64.3,23.6,21.70,WSW,240,3.0,4.0,21,0.00,,,0.00,VWS V14.01,2013-06-11 04:36:00,
2013-06-10 21:41:00,64.2,23.5,21.70,West,277,3.0,5.0,21,0.00,,,0.00,VWS V14.01,2013-06-11 04:41:00,
2013-06-10 21:46:00,64.1,22.2,21.70,WSW,242,1.0,6.0,20,0.00,,,0.00,VWS V14.01,2013-06-11 04:46:00,
2013-06-10 21:51:00,64.0,22.1,21.70,West,260,6.0,6.0,20,0.00,,,0.00,VWS V14.01,2013-06-11 04:51:00,
2013-06-10 21:56:00,64.0,22.1,21.70,SW,225,6.0,7.0,20,0.00,,,0.00,VWS V14.01,2013-06-11 04:56:00,
2013-06-10 22:00:00,64.0,22.1,21.70,WSW,244,4.0,8.0,20,0.00,,,0.00,VWS V14.01,2013-06-11 05:00:00,
2013-06-10 22:01:00,64.0,22.1,21.70,NW,311,2.0,6.0,20,0.00,,,0.00,VWS V14.01,2013-06-11 05:01:00,
2013-06-10 22:06:00,63.8,20.8,21.70,West,271,2.0,10.0,19,0.00,,,0.00,VWS V14.01,2013-06-11 05:06:00,
2013-06-10 22:11:00,63.8,20.8,21.70,West,272,5.0,10.0,19,0.00,,,0.00,VWS V14.01,2013-06-11 05:11:00,
2013-06-10 22:16:00,63.7,20.7,21.70,WSW,248,0.0,10.0,19,0.00,,,0.00,VWS V14.01,2013-06-11 05:16:00,
2013-06-10 22:21:00,63.6,20.6,21.70,West,260,0.0,10.0,19,0.00,,,0.00,VWS V14.01,2013-06-11 05:21:00,
2013-06-10 22:26:00,63.6,20.6,21.70,SW,223,3.0,10.0,19,0.00,,,0.00,VWS V14.01,2013-06-11 05:26:00,
2013-06-10 22:30:00,63.6,19.4,21.70,SSW,205,5.0,10.0,18,0.00,,,0.00,VWS V14.01,2013-06-11 05:30:00,
2013-06-10 22:31:00,63.6,19.4,21.70,West,259,2.0,6.0,18,0.00,,,0.00,VWS V14.01,2013-06-11 05:31:00,
2013-06-10 22:36:00,63.6,19.4,21.70,West,261,5.0,11.0,18,0.00,,,0.00,VWS V14.01,2013-06-11 05:36:00,
2013-06-10 22:41:00,63.5,19.3,21.70,WSW,251,8.0,11.0,18,0.00,,,0.00,VWS V14.01,2013-06-11 05:41:00,
2013-06-10 22:46:00,63.5,19.3,21.70,WNW,302,4.0,11.0,18,0.00,,,0.00,VWS V14.01,2013-06-11 05:46:00,
2013-06-10 22:51:00,63.4,19.2,21.70,WNW,295,4.0,11.0,18,0.00,,,0.00,VWS V14.01,2013-06-11 05:51:00,
2013-06-10 22:56:00,63.4,19.2,21.70,NW,314,0.0,11.0,18,0.00,,,0.00,VWS V14.01,2013-06-11 05:56:00,
2013-06-10 23:00:00,63.3,19.1,21.70,WNW,301,0.0,11.0,18,0.00,,,0.00,VWS V14.01,2013-06-11 06:00:00,
2013-06-10 23:01:00,63.3,19.1,21.70,West,268,0.0,5.0,18,0.00,,,0.00,VWS V14.01,2013-06-11 06:01:00,
2013-06-10 23:06:00,63.3,19.1,21.70,West,269,1.0,5.0,18,0.00,,,0.00,VWS V14.01,2013-06-11 06:06:00,
2013-06-10 23:11:00,63.2,19.0,21.70,West,268,0.0,5.0,18,0.00,,,0.00,VWS V14.01,2013-06-11 06:11:00,
2013-06-10 23:16:00,63.1,18.9,21.70,WNW,294,3.0,5.0,18,0.00,,,0.00,VWS V14.01,2013-06-11 06:16:00,
2013-06-10 23:21:00,63.0,18.9,21.70,WNW,294,0.0,5.0,18,0.00,,,0.00,VWS V14.01,2013-06-11 06:21:00,
2013-06-10 23:26:00,62.9,18.8,21.70,WNW,294,0.0,5.0,18,0.00,,,0.00,VWS V14.01,2013-06-11 06:26:00,
2013-06-10 23:30:00,62.9,18.8,21.70,WNW,294,0.0,5.0,18,0.00,,,0.00,VWS V14.01,2013-06-11 06:30:00,
2013-06-10 23:31:00,62.8,18.7,21.70,WNW,294,0.0,0.0,18,0.00,,,0.00,VWS V14.01,2013-06-11 06:31:00,
2013-06-10 23:36:00,62.7,19.9,21.70,WNW,294,0.0,0.0,19,0.00,,,0.00,VWS V14.01,2013-06-11 06:36:00,
2013-06-10 23:41:00,62.7,19.9,21.70,WNW,294,0.0,0.0,19,0.00,,,0.00,VWS V14.01,2013-06-11 06:41:00,
2013-06-10 23:46:00,62.6,19.8,21.70,WNW,294,0.0,0.0,19,0.00,,,0.00,VWS V14.01,2013-06-11 06:46:00,
2013-06-10 23:51:00,62.6,19.8,21.70,WNW,294,0.0,0.0,19,0.00,,,0.00,VWS V14.01,2013-06-11 06:51:00,
2013-06-10 23:56:00,62.4,19.6,21.70,WNW,294,0.0,0.0,19,0.00,,,0.00,VWS V14.01,2013-06-11 06:56:00,